Hourly Data Report for October 11, 2016

All times are specified in Local Standard Time (LST). Add 1 hour to adjust for Daylight Saving Time where and when it is observed.

ARVIAT A
NUNAVUT

61°05'38.000" N
94°04'18.000" W
10.40 m
2300427
71174
YEK

Download Data

Hourly Data (October 2016)
Hourly Data Report for October 11, 2016
Temp Definition
°C
Dew Point Temp Definition
°C
Rel Hum Definition
%
Wind Dir Definition
10's deg

Wind Spd Definition
km/h
Visibility Definition
km
Stn Press Definition
kPa
Hmdx Definition


Wind Chill Definition


Weather Definition


TIME
00:00 Legend Double Dagger -1.7 -5.0 78 30 8 16.1 101.93   -5 LegendNANA
01:00 Legend Double Dagger -1.7 -3.1 90 28 11 16.1 101.90   -6 LegendNANA
02:00 Legend Double Dagger -1.9 -3.2 91 27 15 16.1 101.88   -7 LegendNANA
03:00 Legend Double Dagger -3.3 -3.7 97 27 13 16.1 101.86   -8 LegendNANA
04:00 Legend Double Dagger -3.5 -4.1 96 26 9 16.1 101.84   -7 LegendNANA
05:00 Legend Double Dagger -3.2 -4.1 93 25 15 16.1 101.83   -8 LegendNANA
06:00 Legend Double Dagger -2.6 -3.7 92 23 13 16.1 101.79   -7 LegendNANA
07:00 Legend Double Dagger -2.0 -2.7 95 23 21 16.1 101.73   -8 LegendNANA
08:00 Legend Double Dagger -1.3 -3.0 88 24 21 16.1 101.67   -7 LegendNANA
09:00 Legend Double Dagger -1.4 -3.9 83 24 22 16.1 101.63   -7 LegendNANA
10:00 Legend Double Dagger -0.8 -3.8 80 24 24 16.1 101.60   -7 LegendNANA
11:00 Legend Double Dagger -0.4 -3.2 81 24 21 16.1 101.58   -6 LegendNANA
12:00 Legend Double Dagger 0.5 -3.1 77 24 22 16.1 101.51     LegendNANA
13:00 Legend Double Dagger 0.4 -2.8 79 21 21 16.1 101.44     LegendNANA
14:00 Legend Double Dagger 0.8 -3.0 76 21 24 16.1 101.36     LegendNANA
15:00 Legend Double Dagger 1.7 -3.6 68 21 21 16.1 101.28     LegendNANA
16:00 Legend Double Dagger 0.7 -4.0 71 21 17 16.1 101.20     LegendNANA
17:00 Legend Double Dagger 1.0 -2.8 76 21 21 16.1 101.11     LegendNANA
18:00 Legend Double Dagger 0.2 -1.9 86 21 24 16.1 101.06     LegendNANA
19:00 Legend Double Dagger 0.2 -1.6 88 20 28 16.1 100.96     LegendNANA
20:00 Legend Double Dagger 0.3 -1.0 91 21 32 16.1 100.87     LegendNANA
21:00 Legend Double Dagger -1.4 -2.2 94 30 30 16.1 100.88   -8 LegendNANA
22:00 Legend Double Dagger -2.6 -3.8 91 30 26 16.1 100.89   -9 LegendNANA
23:00 Legend Double Dagger -2.9 -4.2 91 29 18 16.1 100.91   -9 LegendNANA

Notes on Data Quality.

Legend

  • E = Estimated
  • M = Missing
  • NA = Not Available
  • ‡ = Partner data that is not subject to review by the National Climate Archives
Date modified: